Regional Weather Roundup
Issued by NWS State College, PA

Home | Current Version | Previous Version | Text Only | Print | Product List | Glossary Off
Versions: 1 2 3 4 5 6 7 8 9 10 11 12 13 14 15 16 17 18 19 20 21 22 23 24 25 26 27 28 29 30 31 32 33 34 35 36 37 38 39 40 41 42 43 44 45 46 47 48 49 50

000
ASUS41 KCTP 200403
RWRCTP

REGIONAL WEATHER ROUNDUP
NATIONAL WEATHER SERVICE STATE COLLEGE PA
1100 PM EST FRI DEC 19 2014

Note: "fair" indicates few or no clouds below 12,000 feet with no
significant weather and/or obstructions to visibility.

* = STATION THAT DOES NOT REPORT PRECIPITATION /E.G. RAIN...SNOW...ETC/
    THUNDER OR FOG.

PAZ002>004-007>009-013>016-020>023-029>032-200500-
WESTERN PENNSYLVANIA

CITY           SKY/WX    TMP DP  RH WIND       PRES   REMARKS
ERIE           CLOUDY    31  23  72 N9        30.27F
MEADVILLE      CLOUDY    26  19  74 CALM      30.23F
FRANKLIN*      CLOUDY    25  18  74 NW6       30.24F
NEW CASTLE       N/A     27  19  71 N3        30.28S
BEAVER COUNTY  NOT AVBL
BUTLER*        CLOUDY    28  19  69 CALM      30.26S
PITTSBURGH INT CLOUDY    29  21  72 NW5       30.25S
PITTSBURGH     CLOUDY    29  18  63 N6        30.24S
INDIANA*       CLOUDY    27  19  74 CALM      30.27F
LATROBE        CLOUDY    28  19  69 CALM      30.27S
WASHINGTON CO* NOT AVBL
$$

PAZ004>006-010>012-017>019-024>028-033>037-041-042-045-046-049>053-200500-
CENTRAL PENNSYLVANIA

CITY           SKY/WX    TMP DP  RH WIND       PRES   REMARKS
BRADFORD       CLOUDY    22  17  81 NW13      30.19S WCI  10
DUBOIS         CLOUDY    22  18  85 N5        30.19F
CLEARFIELD     CLOUDY    24  17  74 N6        30.22F
JOHNSTOWN      CLOUDY    22  16  78 NW9       30.16F WCI  12
ALTOONA        CLEAR     26  18  71 NW13      30.21F WCI  15
STATE COLLEGE  CLEAR     27  18  71 NW7       30.21F
WILLIAMSPORT   CLOUDY    32  18  56 W7        30.23R
SELINSGROVE    CLOUDY    32  21  64 NW8       30.23F
FT INDIANTOWN  CLOUDY    32  20  60 NW8       30.21S
CAPITAL CITY   PTCLDY    30  20  66 W5        30.23S
HARRISBURG     PTCLDY    30  21  69 NW7       30.22S
YORK           CLEAR     30  20  66 W6        30.22S
$$

PAZ038>040-043-044-047-048-054-055-060>062-067>071-200500-
EASTERN PENNSYLVANIA

CITY           SKY/WX    TMP DP  RH WIND       PRES   REMARKS
SCRANTON       CLOUDY    29  21  72 N12       30.19R
MOUNT POCONO   CLOUDY    24  20  84 NW15G21   30.09R WCI  11
ALLENTOWN      CLOUDY    33  21  61 NW12      30.19S
QUAKERTOWN*    CLOUDY    32  21  64 N7        30.19S
READING        CLOUDY    34  21  59 NW9       30.20S
LANCASTER      CLEAR     29  21  72 NW8       30.21R
COATESVILLE    MOCLDY    32  25  74 NW6       30.19S
POTTSTOWN      CLOUDY    32  21  64 N5        30.21R
BLUE BELL      CLOUDY    34  23  64 CALM      30.19S
DOYLESTOWN     CLOUDY    31  21  66 NW5       30.18S
WILLOW GROVE   NOT AVBL
NORTH PHILA    CLOUDY    33  19  56 NW6       30.22R
PHILADELPHIA   MOCLDY    34  21  59 NW5       30.22S
$$



USA.gov is the U.S. government's official web portal to all federal, state and local government web resources and services.